Regional Weather Roundup
Issued by NWS

Home | Current Version | Previous Version | Graphics & Text | Print | Product List | Glossary On
Versions: 1 2 3 4 5 6 7 8 9 10 11 12 13 14 15 16 17 18 19 20 21 22 23 24 25 26 27 28 29 30 31 32 33 34 35 36 37 38 39 40 41 42 43 44 45 46 47 48 49 50
000
ASUS44 KMEG 272010
RWRTN
TENNESSEE HOURLY STATE WEATHER ROUNDUP
NATIONAL WEATHER SERVICE MEMPHIS TN
300 PM CDT FRI MAR 27 2015

TNZ002-004-019-021-049-052-054-088>092-272100-
WEST TENNESSEE

CITY           SKY/WX    TMP DP  RH WIND       PRES   REMARKS
MEMPHIS INTL   LGT RAIN  46  39  76 N12       30.10F
NWS MEMPHIS      N/A     49 N/A N/A MISG        N/A
JACKSON        CLOUDY    48  34  58 N22       30.07S
DYERSBURG      PTSUNNY   45  25  45 N13G18    30.13R
UNION CITY     CLOUDY    39  36  87 NW18      30.09S WCI  30
PARIS          PTSUNNY   43  30  61 NW15      30.07R
LEXINGTON      PTSUNNY   45  34  65 NW10      30.03S
SAVANNAH       PTSUNNY   46  32  57 NW9       30.04S
$$

TNZ008-025-027-028-033-062-065-066-272100-
NORTH MIDDLE TENNESSEE

CITY           SKY/WX    TMP DP  RH WIND       PRES   REMARKS
NASHVILLE      CLOUDY    48  30  49 N13       30.00F
CLARKSVILLE    CLOUDY    43  31  62 NW20G26   30.04S
SMYRNA         PTSUNNY   47  30  51 N13       30.01S
COOKEVILLE     PTSUNNY   45  30  57 N10       29.95R
CROSSVILLE     CLOUDY    43  27  53 NW17G24   29.91S
$$

TNZ061-075-076-078-094-096-097-272100-
SOUTH MIDDLE TENNESSEE

CITY           SKY/WX    TMP DP  RH WIND       PRES   REMARKS
FAYETTEVILLE   MOSUNNY   45  28  53 N13       29.97S
TULLAHOMA      PTSUNNY   45  28  53 NW10      29.97F
WINCHESTER     PTSUNNY   45  32  61 N14       29.97R
MCMINNVILLE    MOSUNNY   45  30  57 N15       29.96R
COLUMBIA       PTSUNNY   45  36  70 W9        29.99R
SHELBYVILLE    CLOUDY    46  30  53 N14       29.99S
$$

TNZ017-018-042-046-047-272100-
NORTHEAST TENNESSEE

CITY           SKY/WX    TMP DP  RH WIND       PRES   REMARKS
TRI CITIES     PTSUNNY   47  27  45 W10       29.83F
ELIZABETHTON   PTCLDY    43  27  52 NW9       29.82S
$$

TNZ012-013-036-069-073-074-272100-
CENTRAL EAST TENNESSEE

CITY           SKY/WX    TMP DP  RH WIND       PRES   REMARKS
KNOXVILLE      PTSUNNY   50  28  42 N9        29.86F
OAK RIDGE      CLOUDY    50  25  37 NW8G20    29.89F
GATLINBURG     MOCLDY    46  28  49 W8        29.86S
MORRISTOWN     PTCLDY    46  28  49 NW13      29.86S
$$

TNZ083-085-099-272100-
SOUTHEAST TENNESSEE

CITY           SKY/WX    TMP DP  RH WIND       PRES   REMARKS
CHATTANOOGA    PTSUNNY   55  27  34 NW17      29.89F
$$

SKY/WX REPORTED AS FAIR MEANS FEW OR NO CLOUDS BELOW
12 THOUSAND FEET.




USA.gov is the U.S. government's official web portal to all federal, state and local government web resources and services.